Other Surface Observations
Issued by NWS Charleston, SC

Home | Current Version | Previous Version | Text Only | Print | Product List | Glossary On
Versions: 1 2 3 4 5 6 7 8 9 10 11 12 13 14 15 16 17 18 19 20 21 22 23 24 25 26 27 28 29 30 31 32 33 34 35 36 37 38 39 40 41 42 43 44 45 46 47 48 49 50
702
SXUS52 KCHS 141328
OSOCHS

MARINE OBSERVATIONS
NATIONAL WEATHER SERVICE CHARLESTON SC
800 AM EST SUN FEB 14 2016

...DOWNTOWN CHARLESTON AND HARBOR...

CITY           SKY/WX    TMP DP  RH WIND       PRES   REMARKS
WATERFRONT PRK   N/A     31  19  61 NE14      30.31R WCI  21

...LAKE MOULTRIE...

CITY           SKY/WX    TMP DP  RH WIND       PRES   REMARKS
PINOPOLIS        N/A     28  12  50 E12       30.40R WCI  18

...LAKE AND SUPPLEMENTAL COASTAL OBSERVATIONS...

STATION/POSITION TIME  TEMP    WIND        PRES    WAVE   SWELL
                       AIR SEA DIR/SP/G            HT/PER HT/PER/DIR
                 (UTC) (F)     (DEG/KT/KT) (MB)    (FT/S) (FT/S/D)
FORT PULASKI     1300   35 49   50/ 17/ 21 1029.9F
SAPELO ISLAND    1300   42      40/ 13     1028.0S
WINYAH BAY       1245   26      20/  7     1032.0R
LAKE MURRAY      1300   25      50/  3/  7 1031.8R
ACE BASIN NERRS  1245   29      40/  6     1031.0R


...C-MAN AND BUOY OBSERVATIONS...

STATION/POSITION TIME  TEMP    WIND        PRES    WAVE   SWELL
                       AIR SEA DIR/SP/G            HT/PER HT/PER/DIR
                 (UTC) (F)     (DEG/KT/KT) (MB)    (FT/S) (FT/S/D)
BUOY 41004       1250   41 66   40/ 21/ 27 1030.2R   6/ 6   2/ 8
BUOY 41008       1250   47 53   50/ 21/ 25 1028.2R   4/ 4   2/ 70/ 8
FOLLY BEACH CMAN 1300   31      40/ 18/ 21 1031.7R
CAPERS NS BUOY   1208   33      40/ 21/ 27 1031.2R
FRIPP NS BUOY    1200   37      40/ 21/ 29 1029.1R
5E ST. MARYS GA  1221      55                N/A     2/ 6


STATION/POSITION TIME  TEMP    WIND        PRES    WAVE   SWELL
                       AIR SEA DIR/SP/G            HT/PER HT/PER/DIR
                 (UTC) (F)     (DEG/KT/KT) (MB)    (FT/S) (FT/S/D)
FRYING PAN BUOY  1300   36 62   20/ 17/ 25 1031.8R
BUOY 41025       1250   28 72  360/ 23/ 31 1032.3R   6/ 6
CAPE LOOKOUT NC  1300   23      10/ 15/ 21 1033.6R
BUOY 41002       1250   49 67  360/ 14/ 19   N/A     9/ 9   7/ 9
BUOY 41010       1220   61 72              1025.1R
ST AUGUSTINE FL  1300   51 56  320/  6/ 10 1027.1R

$$




USA.gov is the U.S. government's official web portal to all federal, state and local government web resources and services.